Weather History for Le Luc, France

Change the Weather History Date:

Sunday, March 10, 2013

  Actual Average (LFTH) Record (LFTH)
Temperature  
Mean Temperature 53 °F -  
Max Temperature 64 °F 59 °F 64 °F (1997)
Min Temperature 42 °F 44 °F 32 °F (2004)
Degree Days  
Heating Degree Days 12    
Growing Degree Days 3 (Base 50)    
Moisture  
Dew Point 45 °F    
Average Humidity 76    
Maximum Humidity 93    
Minimum Humidity 52    
Precipitation  
Precipitation 0.00 in - - ()
Sea Level Pressure  
Sea Level Pressure 29.54 in    
Wind  
Wind Speed 4 mph ()    
Max Wind Speed 9 mph    
Max Gust Speed -    
Visibility 6.2 miles    
Events      
Averages and records for this station are not official NWS values.
T = Trace of Precipitation, MM = Missing Value Source: Averaged Metar Reports

Daily Weather History Graph

Daily Weather History Graph

Search for Another Location

Airport:

Trip Planner

Search our weather history database for the weather conditions in past years. The results will help you decide how hot, cold, wet, or windy it might be!

Date:

Astronomy

Mar. 10, 2013 Rise Set
Actual Time 6:55 AM CET 6:34 PM CET
Civil Twilight 6:26 AM CET 7:03 PM CET
Nautical Twilight 5:53 AM CET 7:36 PM CET
Astronomical Twilight 5:20 AM CET 8:09 PM CET
Moon 5:47 AM CET (3/10) 5:24 PM CET (3/10)
Length of Visible Light 12h 36m
Length of Day
11h 39m
Waning Crescent, 2% of the Moon is Illuminated
Mar 10
Waning Crescent
Mar 11
New
Mar 19
First Quarter
Mar 27
Full
Apr 3
Last Quarter

Hourly Weather History & Observations

Time (CET) Temp. Windchill Dew Point Humidity Pressure Visibility Wind Dir Wind Speed Gust Speed Precip Events Conditions
12:00 AM 48.2 °F - 44.6 °F 87% 29.65 in 6.2 mi SW 4.6 mph - N/A   Unknown
12:30 AM 46.4 °F - 42.8 °F 87% 29.65 in 6.2 mi Variable 2.3 mph - N/A   Unknown
1:00 AM 46.4 °F 45.2 °F 42.8 °F 87% 29.62 in 6.2 mi WSW 3.5 mph - N/A   Unknown
1:30 AM 46.4 °F 43.5 °F 42.8 °F 87% 29.65 in 6.2 mi SW 5.8 mph - N/A   Unknown
2:00 AM 46.4 °F 42.9 °F 42.8 °F 87% 29.62 in 6.2 mi WSW 6.9 mph - N/A   Unknown
2:30 AM 44.6 °F 41.4 °F 42.8 °F 93% 29.62 in 6.2 mi SW 5.8 mph - N/A   Unknown
3:00 AM 44.6 °F 42.2 °F 42.8 °F 93% 29.62 in 6.2 mi West 4.6 mph - N/A   Unknown
3:30 AM 44.6 °F 40.7 °F 42.8 °F 93% 29.59 in 6.2 mi SW 6.9 mph - N/A   Unknown
4:00 AM 44.6 °F 41.4 °F 42.8 °F 93% 29.59 in 6.2 mi SW 5.8 mph - N/A   Unknown
4:30 AM 46.4 °F 43.5 °F 42.8 °F 87% 29.56 in 6.2 mi WSW 5.8 mph - N/A   Unknown
5:00 AM 46.4 °F 42.9 °F 42.8 °F 87% 29.56 in 6.2 mi WSW 6.9 mph - N/A   Unknown
5:30 AM 44.6 °F 40.7 °F 41.0 °F 87% 29.56 in 6.2 mi WSW 6.9 mph - N/A   Unknown
6:00 AM 44.6 °F 41.4 °F 41.0 °F 87% 29.56 in 6.2 mi WSW 5.8 mph - N/A   Unknown
6:30 AM 44.6 °F 41.4 °F 41.0 °F 87% 29.56 in 6.2 mi West 5.8 mph - N/A   Unknown
7:00 AM 44.6 °F - 41.0 °F 87% 29.56 in 6.2 mi Calm Calm - N/A   Unknown
7:30 AM 42.8 °F - 39.2 °F 87% 29.56 in 6.2 mi Variable 2.3 mph - N/A   Unknown
8:00 AM 44.6 °F - 41.0 °F 87% 29.56 in 6.2 mi Variable 2.3 mph - N/A   Unknown
8:30 AM 44.6 °F - 42.8 °F 93% 29.56 in 6.2 mi SE 2.3 mph - N/A   Unknown
9:00 AM 46.4 °F - 42.8 °F 87% 29.56 in 6.2 mi Calm Calm - N/A   Unknown
9:30 AM 48.2 °F - 42.8 °F 82% 29.56 in 6.2 mi Calm Calm - N/A   Unknown
10:00 AM 48.2 °F - 42.8 °F 82% 29.56 in 6.2 mi Calm Calm - N/A   Unknown
10:30 AM 50.0 °F - 44.6 °F 82% 29.56 in 6.2 mi Calm Calm - N/A   Unknown
11:00 AM 51.8 °F - 44.6 °F 76% 29.53 in 6.2 mi Calm Calm - N/A   Unknown
11:30 AM 55.4 °F - 46.4 °F 72% 29.53 in 6.2 mi SE 2.3 mph - N/A   Unknown
12:00 PM 57.2 °F - 48.2 °F 72% 29.53 in 6.2 mi Variable 1.2 mph - N/A   Unknown
12:30 PM 59.0 °F - 48.2 °F 67% 29.50 in 6.2 mi Variable 1.2 mph - N/A   Unknown
1:00 PM 59.0 °F - 46.4 °F 63% 29.50 in 6.2 mi Variable 2.3 mph - N/A   Unknown
1:30 PM 60.8 °F - 48.2 °F 63% 29.50 in 6.2 mi SE 3.5 mph - N/A   Unknown
2:00 PM 62.6 °F - 46.4 °F 55% 29.47 in 6.2 mi ESE 3.5 mph - N/A   Unknown
2:30 PM 62.6 °F - 48.2 °F 59% 29.47 in 6.2 mi SE 3.5 mph - N/A   Unknown
3:00 PM 62.6 °F - 46.4 °F 55% 29.47 in 6.2 mi SSW 3.5 mph - N/A   Unknown
3:30 PM 60.8 °F - 48.2 °F 63% 29.47 in 6.2 mi WSW 8.1 mph - N/A   Unknown
4:00 PM 59.0 °F - 48.2 °F 67% 29.47 in 6.2 mi WSW 5.8 mph - N/A   Unknown
4:30 PM 64.4 °F - 48.2 °F 56% 29.44 in 6.2 mi WSW 5.8 mph - N/A   Unknown
5:00 PM 64.4 °F - 46.4 °F 52% 29.44 in 6.2 mi WSW 3.5 mph - N/A   Unknown
5:30 PM 62.6 °F - 48.2 °F 59% 29.44 in 6.2 mi WSW 8.1 mph - N/A   Unknown
6:00 PM 59.0 °F - 50.0 °F 72% 29.47 in 6.2 mi WSW 8.1 mph - N/A   Unknown
6:30 PM 57.2 °F - 51.8 °F 82% 29.47 in 6.2 mi WSW 9.2 mph - N/A   Unknown
7:00 PM 57.2 °F - 50.0 °F 77% 29.50 in 6.2 mi WSW 6.9 mph - N/A   Unknown
7:30 PM 55.4 °F - 48.2 °F 77% 29.50 in 6.2 mi WSW 4.6 mph - N/A   Unknown
8:00 PM 57.2 °F - 44.6 °F 63% 29.50 in 6.2 mi WSW 5.8 mph - N/A   Unknown
8:30 PM 55.4 °F - 46.4 °F 72% 29.50 in 6.2 mi WSW 6.9 mph - N/A   Unknown
9:00 PM 55.4 °F - 46.4 °F 72% 29.50 in 6.2 mi WSW 9.2 mph - N/A   Unknown
9:30 PM 53.6 °F - 44.6 °F 72% 29.50 in 6.2 mi SW 8.1 mph - N/A   Unknown
10:00 PM 53.6 °F - 42.8 °F 67% 29.53 in 6.2 mi WSW 6.9 mph - N/A   Unknown
10:30 PM 51.8 °F - 42.8 °F 71% 29.53 in 6.2 mi West 6.9 mph - N/A   Unknown
11:00 PM 51.8 °F - 41.0 °F 67% 29.53 in 6.2 mi NW 6.9 mph - N/A   Unknown
11:30 PM 51.8 °F - 41.0 °F 67% 29.53 in 6.2 mi Variable 3.5 mph - N/A   Unknown